QPF
0.00 0.00 0.00 0.00 0.00 0.00 0.00 0.00 0.00 0.00 0.00 0.00 0.00 0.00 0.00 0.00 0.00 0.00 0.00 0.00 0.00 0.00 0.00 0.00 0.00 0.00 0.00 0.00 0.00 0.00 0.00 0.00 0.00 0.00 0.00 0.00 0.00 0.00 0.00 0.00 0.00 0.00 0.00 0.00
0.00 0.00 0.00 0.00 0.00 0.00 0.00 0.00 0.00 0.00 0.00 0.00 0.00 0.00 0.00 0.00 0.00 0.00 0.00 0.00 0.00 0.00 0.00 0.00 0.00 0.00 0.00 0.00 0.00 0.00 0.00 0.00 0.00 0.00 0.00 0.00 0.00 0.00 0.00 0.00 0.00 0.00 0.00 0.00
0.00 0.00 0.00 0.00 0.00 0.00 0.00 0.00 0.00 0.00 0.00 0.00 0.00 0.00 0.00 0.00 0.00 0.00 0.00 0.00 0.00 0.00 0.00 0.00 0.00 0.00 0.00 0.00 0.00 0.00 0.00 0.00 0.00 0.00 0.00 0.00 0.00 0.00 0.00 0.00 0.00 0.00 0.00 0.00
0.00 0.00 0.00 0.00 0.00 0.00 0.00 0.00 0.00 0.00 0.00 0.00 0.00 0.00 0.00 0.00 0.00 0.00 0.00 0.00 0.00 0.00 0.00 0.00 0.00 0.00 0.00 0.00 0.00 0.00 0.00 0.00 0.00 0.00 0.00 0.00 0.00 0.00 0.00 0.00 0.00 0.00 0.00 0.00
0.00 0.00 0.00 0.00 0.00 0.00 0.00 0.00 0.00 0.00 0.00 0.00 0.00 0.00 0.00 0.00 0.00 0.00 0.00 0.00 0.00 0.00 0.00 0.00 0.00 0.00 0.00 0.00 0.00 0.00 0.00 0.00 0.00 0.00 0.00 0.00 0.00 0.00 0.00 0.00 0.00 0.00 0.00 0.00
0.00 0.00 0.00 0.00 0.00 0.00 0.00 0.00 0.00 0.00 0.00 0.00 0.00 0.00 0.00 0.00 0.00 0.00 0.00 0.00 0.00 0.00 0.00 0.00 0.00 0.00 0.00 0.00 0.00 0.00 0.00 0.00 0.00 0.00 0.00 0.00 0.00 0.00 0.00 0.00 0.00 0.00 0.00 0.00
0.00 0.00 0.00 0.00 0.00 0.00 0.00 0.00 0.00 0.00 0.00 0.00 0.00 0.00 0.00 0.00 0.00 0.00 0.00 0.00 0.00 0.00 0.00 0.00 0.00 0.00 0.00 0.00 0.00 0.00 0.00 0.00 0.00 0.00 0.00 0.00 0.00 0.00 0.00 0.00 0.00 0.00 0.00 0.00
0.00 0.00 0.00 0.00 0.00 0.00 0.00 0.00 0.00 0.00 0.00 0.00 0.00 0.00 0.00 0.00 0.00 0.00 0.00 0.00 0.00 0.00 0.00 0.00 0.00 0.00 0.00 0.00 0.00 0.00 0.00 0.00 0.00 0.00 0.00 0.00 0.00 0.00 0.00 0.00 0.00 0.00 0.00 0.00
0.00 0.00 0.00 0.00 0.00 0.00 0.00 0.00 0.00 0.00 0.00 0.00 0.00 0.00 0.00 0.00 0.00 0.00 0.00 0.00 0.00 0.00 0.00 0.00 0.00 0.00 0.00 0.00 0.00 0.00 0.00 0.00 0.00 0.00 0.00 0.00 0.00 0.00 0.00 0.00 0.00 0.00 0.00 0.00
0.00 0.00 0.00 0.00 0.00 0.00 0.00 0.00 0.00 0.00 0.00 0.00 0.00 0.00 0.00 0.00 0.00 0.00 0.00 0.00 0.00 0.00 0.00 0.00 0.00 0.00 0.00 0.00 0.00 0.00 0.00 0.00 0.00 0.00 0.00 0.00 0.00 0.00 0.00 0.00 0.00 0.00 0.00 0.00
0.00 0.00 0.00 0.00 0.00 0.00 0.00 0.00 0.00 0.00 0.00 0.00 0.00 0.00 0.00 0.00 0.00 0.00 0.00 0.00 0.00 0.00 0.00 0.00 0.00 0.00 0.00 0.00 0.00 0.00 0.00 0.00 0.00 0.00 0.00 0.00 0.00 0.00 0.00 0.00 0.00 0.00 0.00 0.00
0.00 0.00 0.00 0.00 0.00 0.00 0.00 0.00 0.00 0.00 0.00 0.00 0.00 0.00 0.00 0.00 0.00 0.00 0.00 0.00 0.00 0.00 0.00 0.00 0.00 0.00 0.00 0.00 0.00 0.00 0.00 0.00 0.00 0.00 0.00 0.00 0.00 0.00 0.00 0.00 0.00 0.00 0.00 0.00
0.00 0.00 0.00 0.00 0.00 0.00 0.00 0.00 0.00 0.00 0.00 0.00 0.00 0.00 0.00 0.00 0.00 0.00 0.00 0.00 0.00 0.00 0.00 0.00 0.00 0.00 0.00 0.00 0.00 0.00 0.00 0.00 0.00 0.00 0.00 0.00 0.00 0.00 0.00 0.00 0.00 0.00 0.00 0.00
0.00 0.00 0.00 0.00 0.00 0.00 0.00 0.00 0.00 0.00 0.00 0.00 0.00 0.00 0.00 0.00 0.00 0.00 0.00 0.00 0.00 0.00 0.00 0.00 0.00 0.00 0.00 0.00 0.00 0.00 0.00 0.00 0.00 0.00 0.00 0.00 0.00 0.00 0.00 0.00 0.00 0.00 0.00 0.00
0.00 0.00 0.00 0.00 0.00 0.00 0.00 0.00 0.00 0.00 0.00 0.00 0.00 0.00 0.00 0.00 0.00 0.00 0.00 0.00 0.00 0.00 0.00 0.00 0.00 0.00 0.00 0.00 0.00 0.00 0.00 0.00 0.00 0.00 0.00 0.00 0.00 0.00 0.00 0.00 0.00 0.00 0.00 0.00
0.00 0.00 0.00 0.00 0.00 0.00 0.00 0.00 0.00 0.00 0.00 0.00 0.00 0.00 0.00 0.00 0.00 0.00 0.00 0.00 0.00 0.00 0.00 0.00 0.00 0.00 0.00 0.00 0.00 0.00 0.00 0.00 0.00 0.00 0.00 0.00 0.00 0.00 0.00 0.00 0.00 0.00 0.00 0.00
0.00 0.00 0.00 0.00 0.00 0.00 0.00 0.00 0.00 0.00 0.00 0.00 0.00 0.00 0.00 0.00 0.00 0.00 0.00 0.00 0.00 0.00 0.00 0.00 0.00 0.00 0.00 0.00 0.00 0.00 0.00 0.00 0.00 0.00 0.00 0.00 0.00 0.00 0.00 0.00 0.00 0.00 0.00 0.00
0.00 0.00 0.00 0.00 0.00 0.00 0.00 0.00 0.00 0.00 0.00 0.00 0.00 0.00 0.00 0.00 0.00 0.00 0.00 0.00 0.00 0.00 0.00 0.00 0.00 0.00 0.00 0.00 0.00 0.00 0.00 0.00 0.00 0.00 0.00 0.00 0.00 0.00 0.00 0.00 0.00 0.00 0.00 0.00
0.00 0.00 0.00 0.00 0.00 0.00 0.00 0.00 0.00 0.00 0.00 0.00 0.00 0.00 0.00 0.00 0.00 0.00 0.00 0.00 0.00 0.00 0.00 0.00 0.00 0.00 0.00 0.00 0.00 0.00 0.00 0.00 0.00 0.00 0.00 0.00 0.00 0.00 0.00 0.00 0.00 0.00 0.00 0.00
0.00 0.00 0.00 0.00 0.00 0.00 0.00 0.00 0.00 0.00 0.00 0.00 0.00 0.00 0.00 0.00 0.00 0.00 0.00 0.00 0.00 0.00 0.00 0.00 0.00 0.00 0.00 0.00 0.00 0.00 0.00 0.00 0.00 0.00 0.00 0.00 0.00 0.00 0.00 0.00 0.00 0.00 0.00 0.00
0.00 0.00 0.00 0.00 0.00 0.00 0.00 0.00 0.00 0.00 0.00 0.00 0.00 0.00 0.00 0.00 0.00 0.00 0.00 0.00 0.00 0.00 0.00 0.00 0.00 0.00 0.00 0.00 0.00 0.00 0.00 0.00 0.00 0.00 0.00 0.00 0.00 0.00 0.00 0.00 0.00 0.00 0.00 0.00
0.00 0.00 0.00 0.00 0.01 0.00 0.00 0.00 0.00 0.00 0.00 0.00 0.00 0.00 0.00 0.00 0.00 0.00 0.00 0.00 0.00 0.00 0.00 0.00 0.00 0.00 0.00 0.00 0.00 0.00 0.00 0.00 0.00 0.00 0.00 0.00 0.00 0.00 0.00 0.00 0.00 0.00 0.00 0.00
0.00 0.00 0.00 0.00 0.00 0.00 0.00 0.00 0.00 0.00 0.00 0.00 0.00 0.00 0.00 0.00 0.00 0.00 0.00 0.00 0.00 0.00 0.00 0.00 0.00 0.00 0.00 0.00 0.00 0.00 0.00 0.00 0.00 0.00 0.00 0.00 0.00 0.00 0.00 0.00 0.00 0.00 0.00 0.00
0.00 0.00 0.00 0.00 0.00 0.00 0.00 0.00 0.00 0.00 0.00 0.00 0.00 0.00 0.00 0.00 0.00 0.00 0.00 0.00 0.00 0.00 0.00 0.00 0.00 0.00 0.00 0.00 0.00 0.00 0.00 0.00 0.00 0.00 0.00 0.00 0.00 0.00 0.00 0.00 0.00 0.00 0.00 0.00
0.00 0.00 0.00 0.00 0.00 0.00 0.00 0.00 0.00 0.00 0.00 0.00 0.00 0.00 0.00 0.00 0.00 0.00 0.00 0.00 0.00 0.00 0.00 0.00 0.00 0.00 0.00 0.00 0.00 0.00 0.00 0.00 0.00 0.00 0.00 0.00 0.00 0.00 0.00 0.00 0.00 0.00 0.00 0.00
0.00 0.00 0.00 0.00 0.00 0.00 0.00 0.00 0.00 0.00 0.00 0.00 0.00 0.00 0.00 0.00 0.00 0.00 0.00 0.00 0.00 0.00 0.00 0.00 0.00 0.00 0.00 0.00 0.00 0.00 0.00 0.00 0.00 0.00 0.00 0.00 0.00 0.00 0.00 0.00 0.00 0.00 0.00 0.00
MSLP
1017.37 1017.71 1017.94 1018.08 1018.12 1018.10 1018.04 1017.95 1017.84 1017.72 1017.60 1017.46 1017.32 1017.19 1017.06 1016.97 1016.90 1016.86 1016.86 1016.86 1016.87 1016.87 1016.85 1016.82 1016.80 1016.80 1016.86 1016.98 1017.18 1017.45 1017.78 1018.13 1018.48 1018.80 1019.08 1019.30 1019.47 1019.61 1019.74 1019.87 1020.02 1020.18 1020.36 1020.54
1017.45 1017.72 1017.88 1017.96 1017.98 1017.95 1017.91 1017.85 1017.78 1017.70 1017.60 1017.48 1017.35 1017.21 1017.08 1016.99 1016.94 1016.94 1016.98 1017.05 1017.13 1017.20 1017.24 1017.26 1017.26 1017.27 1017.31 1017.39 1017.55 1017.77 1018.04 1018.35 1018.65 1018.92 1019.15 1019.31 1019.43 1019.50 1019.56 1019.62 1019.70 1019.81 1019.94 1020.09
1017.41 1017.61 1017.72 1017.77 1017.78 1017.78 1017.76 1017.74 1017.71 1017.65 1017.56 1017.43 1017.28 1017.12 1016.98 1016.87 1016.84 1016.88 1016.98 1017.12 1017.29 1017.44 1017.56 1017.64 1017.67 1017.69 1017.72 1017.78 1017.90 1018.07 1018.31 1018.57 1018.83 1019.06 1019.25 1019.36 1019.42 1019.43 1019.42 1019.41 1019.42 1019.47 1019.54 1019.65
1017.25 1017.40 1017.49 1017.54 1017.57 1017.60 1017.62 1017.63 1017.62 1017.57 1017.47 1017.31 1017.11 1016.90 1016.72 1016.60 1016.57 1016.64 1016.81 1017.03 1017.30 1017.55 1017.76 1017.91 1018.00 1018.05 1018.08 1018.12 1018.21 1018.35 1018.55 1018.77 1019.00 1019.20 1019.35 1019.43 1019.44 1019.40 1019.32 1019.24 1019.19 1019.16 1019.18 1019.23
1017.02 1017.15 1017.23 1017.30 1017.36 1017.43 1017.50 1017.54 1017.54 1017.47 1017.33 1017.12 1016.86 1016.58 1016.35 1016.20 1016.16 1016.26 1016.48 1016.80 1017.16 1017.51 1017.83 1018.06 1018.22 1018.31 1018.36 1018.40 1018.47 1018.58 1018.74 1018.93 1019.13 1019.31 1019.43 1019.48 1019.46 1019.37 1019.25 1019.11 1018.99 1018.91 1018.87 1018.87
1016.72 1016.85 1016.95 1017.05 1017.16 1017.28 1017.39 1017.46 1017.46 1017.36 1017.17 1016.89 1016.54 1016.19 1015.89 1015.70 1015.65 1015.77 1016.04 1016.43 1016.89 1017.35 1017.77 1018.10 1018.33 1018.47 1018.55 1018.60 1018.65 1018.74 1018.88 1019.04 1019.21 1019.37 1019.47 1019.50 1019.46 1019.34 1019.19 1019.01 1018.85 1018.72 1018.63 1018.58
1016.38 1016.51 1016.64 1016.79 1016.95 1017.12 1017.27 1017.36 1017.36 1017.23 1016.99 1016.63 1016.21 1015.78 1015.41 1015.17 1015.10 1015.23 1015.54 1015.99 1016.53 1017.09 1017.61 1018.03 1018.33 1018.53 1018.64 1018.71 1018.76 1018.83 1018.94 1019.08 1019.23 1019.37 1019.46 1019.48 1019.43 1019.30 1019.13 1018.94 1018.75 1018.58 1018.45 1018.35
1015.97 1016.11 1016.28 1016.48 1016.70 1016.92 1017.11 1017.22 1017.22 1017.07 1016.78 1016.37 1015.88 1015.39 1014.96 1014.67 1014.58 1014.70 1015.03 1015.53 1016.13 1016.76 1017.36 1017.86 1018.23 1018.49 1018.64 1018.73 1018.79 1018.85 1018.95 1019.07 1019.20 1019.32 1019.40 1019.42 1019.37 1019.25 1019.07 1018.87 1018.67 1018.48 1018.32 1018.19
1015.48 1015.65 1015.85 1016.10 1016.37 1016.64 1016.87 1017.00 1017.00 1016.85 1016.54 1016.09 1015.57 1015.03 1014.56 1014.25 1014.13 1014.24 1014.58 1015.09 1015.72 1016.40 1017.05 1017.61 1018.05 1018.36 1018.56 1018.67 1018.75 1018.81 1018.90 1019.00 1019.12 1019.23 1019.31 1019.33 1019.29 1019.18 1019.01 1018.82 1018.61 1018.41 1018.22 1018.05
1014.95 1015.13 1015.36 1015.65 1015.96 1016.26 1016.51 1016.67 1016.69 1016.54 1016.23 1015.79 1015.26 1014.72 1014.24 1013.91 1013.78 1013.87 1014.20 1014.71 1015.35 1016.04 1016.72 1017.33 1017.81 1018.17 1018.41 1018.56 1018.65 1018.73 1018.82 1018.92 1019.03 1019.14 1019.21 1019.24 1019.20 1019.10 1018.94 1018.75 1018.53 1018.31 1018.10 1017.89
1014.39 1014.59 1014.84 1015.14 1015.47 1015.79 1016.06 1016.23 1016.26 1016.14 1015.86 1015.44 1014.94 1014.43 1013.97 1013.65 1013.52 1013.61 1013.91 1014.40 1015.03 1015.72 1016.41 1017.03 1017.55 1017.94 1018.22 1018.41 1018.55 1018.65 1018.75 1018.85 1018.96 1019.06 1019.13 1019.15 1019.11 1019.01 1018.84 1018.63 1018.40 1018.16 1017.91 1017.66
1013.89 1014.09 1014.35 1014.65 1014.96 1015.27 1015.53 1015.70 1015.74 1015.63 1015.39 1015.02 1014.58 1014.12 1013.72 1013.43 1013.33 1013.42 1013.71 1014.19 1014.79 1015.46 1016.14 1016.77 1017.31 1017.74 1018.06 1018.29 1018.45 1018.58 1018.70 1018.81 1018.92 1019.01 1019.06 1019.07 1019.01 1018.89 1018.70 1018.47 1018.20 1017.91 1017.62 1017.32
1013.50 1013.71 1013.95 1014.22 1014.50 1014.76 1014.97 1015.11 1015.13 1015.04 1014.83 1014.52 1014.15 1013.77 1013.44 1013.23 1013.17 1013.28 1013.58 1014.05 1014.63 1015.29 1015.95 1016.58 1017.13 1017.58 1017.94 1018.20 1018.41 1018.56 1018.70 1018.81 1018.91 1018.98 1019.01 1018.99 1018.90 1018.74 1018.51 1018.23 1017.91 1017.56 1017.21 1016.85
1013.28 1013.48 1013.70 1013.91 1014.12 1014.30 1014.43 1014.50 1014.48 1014.37 1014.18 1013.92 1013.63 1013.34 1013.11 1012.99 1013.01 1013.18 1013.51 1013.98 1014.57 1015.21 1015.87 1016.49 1017.05 1017.52 1017.89 1018.19 1018.42 1018.59 1018.73 1018.84 1018.92 1018.96 1018.96 1018.89 1018.75 1018.54 1018.25 1017.91 1017.53 1017.12 1016.70 1016.28
1013.23 1013.42 1013.59 1013.73 1013.84 1013.91 1013.93 1013.89 1013.80 1013.65 1013.46 1013.24 1013.02 1012.84 1012.73 1012.72 1012.83 1013.09 1013.48 1013.99 1014.59 1015.24 1015.89 1016.51 1017.07 1017.55 1017.93 1018.24 1018.47 1018.65 1018.78 1018.87 1018.92 1018.92 1018.87 1018.75 1018.56 1018.28 1017.94 1017.53 1017.08 1016.60 1016.12 1015.64
1013.29 1013.46 1013.58 1013.64 1013.64 1013.58 1013.47 1013.31 1013.12 1012.91 1012.70 1012.51 1012.36 1012.28 1012.29 1012.41 1012.66 1013.03 1013.51 1014.08 1014.71 1015.38 1016.03 1016.65 1017.20 1017.66 1018.04 1018.33 1018.55 1018.71 1018.81 1018.86 1018.87 1018.83 1018.72 1018.55 1018.30 1017.97 1017.57 1017.11 1016.60 1016.06 1015.52 1014.99
1013.35 1013.51 1013.58 1013.56 1013.45 1013.27 1013.02 1012.74 1012.45 1012.17 1011.94 1011.77 1011.69 1011.72 1011.86 1012.13 1012.51 1013.00 1013.59 1014.24 1014.93 1015.61 1016.27 1016.87 1017.40 1017.83 1018.18 1018.43 1018.61 1018.72 1018.78 1018.78 1018.74 1018.64 1018.48 1018.26 1017.97 1017.60 1017.16 1016.66 1016.11 1015.53 1014.95 1014.37
1013.27 1013.42 1013.46 1013.38 1013.19 1012.90 1012.55 1012.17 1011.80 1011.47 1011.23 1011.10 1011.09 1011.23 1011.50 1011.91 1012.44 1013.06 1013.75 1014.48 1015.22 1015.93 1016.58 1017.15 1017.63 1018.01 1018.30 1018.49 1018.60 1018.65 1018.64 1018.59 1018.48 1018.34 1018.14 1017.88 1017.56 1017.17 1016.71 1016.20 1015.63 1015.04 1014.43 1013.82
1012.95 1013.10 1013.13 1013.02 1012.78 1012.44 1012.03 1011.60 1011.20 1010.86 1010.64 1010.56 1010.64 1010.88 1011.28 1011.83 1012.49 1013.23 1014.01 1014.80 1015.57 1016.28 1016.90 1017.43 1017.84 1018.14 1018.34 1018.45 1018.49 1018.46 1018.38 1018.26 1018.11 1017.92 1017.69 1017.42 1017.09 1016.70 1016.24 1015.73 1015.18 1014.58 1013.96 1013.33
1012.36 1012.52 1012.55 1012.44 1012.21 1011.88 1011.48 1011.06 1010.68 1010.39 1010.22 1010.22 1010.40 1010.75 1011.27 1011.93 1012.70 1013.52 1014.37 1015.19 1015.95 1016.63 1017.20 1017.65 1017.97 1018.18 1018.28 1018.30 1018.24 1018.14 1017.99 1017.82 1017.62 1017.40 1017.16 1016.87 1016.55 1016.17 1015.74 1015.26 1014.72 1014.13 1013.52 1012.88
1011.53 1011.70 1011.76 1011.70 1011.52 1011.26 1010.93 1010.59 1010.30 1010.10 1010.03 1010.13 1010.41 1010.87 1011.48 1012.23 1013.06 1013.93 1014.79 1015.60 1016.33 1016.94 1017.42 1017.77 1017.99 1018.09 1018.09 1018.01 1017.87 1017.69 1017.49 1017.27 1017.05 1016.81 1016.56 1016.28 1015.97 1015.61 1015.20 1014.74 1014.23 1013.66 1013.06 1012.42
1010.57 1010.75 1010.86 1010.87 1010.80 1010.65 1010.45 1010.25 1010.09 1010.02 1010.08 1010.30 1010.68 1011.23 1011.91 1012.71 1013.56 1014.42 1015.25 1016.00 1016.64 1017.16 1017.53 1017.76 1017.87 1017.86 1017.76 1017.60 1017.39 1017.16 1016.91 1016.67 1016.42 1016.18 1015.92 1015.65 1015.35 1015.01 1014.62 1014.18 1013.68 1013.13 1012.53 1011.89
1009.66 1009.85 1010.01 1010.11 1010.16 1010.15 1010.11 1010.08 1010.09 1010.17 1010.37 1010.71 1011.18 1011.79 1012.50 1013.30 1014.12 1014.93 1015.68 1016.33 1016.86 1017.25 1017.50 1017.62 1017.61 1017.50 1017.32 1017.09 1016.83 1016.57 1016.30 1016.04 1015.78 1015.53 1015.28 1015.01 1014.71 1014.37 1013.98 1013.55 1013.05 1012.51 1011.91 1011.26
1008.93 1009.13 1009.34 1009.54 1009.71 1009.85 1009.99 1010.12 1010.29 1010.53 1010.86 1011.28 1011.82 1012.46 1013.17 1013.92 1014.67 1015.38 1016.02 1016.55 1016.94 1017.20 1017.33 1017.32 1017.22 1017.03 1016.79 1016.52 1016.23 1015.95 1015.68 1015.42 1015.16 1014.91 1014.65 1014.37 1014.06 1013.71 1013.31 1012.86 1012.35 1011.79 1011.18 1010.53
1008.50 1008.71 1008.96 1009.24 1009.52 1009.80 1010.08 1010.37 1010.68 1011.04 1011.46 1011.95 1012.51 1013.14 1013.80 1014.48 1015.13 1015.72 1016.22 1016.61 1016.87 1017.00 1017.01 1016.91 1016.73 1016.48 1016.21 1015.91 1015.62 1015.34 1015.07 1014.82 1014.57 1014.32 1014.05 1013.75 1013.41 1013.03 1012.60 1012.12 1011.59 1011.01 1010.39 1009.72
1008.43 1008.63 1008.91 1009.24 1009.61 1009.99 1010.38 1010.77 1011.18 1011.62 1012.09 1012.60 1013.15 1013.73 1014.31 1014.89 1015.43 1015.89 1016.26 1016.51 1016.65 1016.67 1016.59 1016.41 1016.17 1015.90 1015.60 1015.30 1015.02 1014.75 1014.50 1014.25 1014.01 1013.75 1013.47 1013.14 1012.78 1012.36 1011.90 1011.38 1010.82 1010.21 1009.57 1008.90
Thickness
5673 5673 5674 5678 5679 5679 5675 5673 5674 5679 5678 5673 5679 5682 5685 5683 5682 5683 5682 5681 5679 5677 5676 5676 5676 5676 5673 5669 5666 5662 5657 5652 5647 5642 5637 5632 5629 5626 5623 5620 5617 5614 5611 5608
5664 5668 5677 5674 5668 5665 5666 5665 5671 5674 5668 5668 5673 5676 5680 5677 5677 5678 5676 5675 5673 5672 5670 5668 5668 5667 5665 5661 5657 5653 5649 5644 5639 5635 5631 5627 5624 5621 5619 5615 5612 5609 5607 5604
5663 5668 5666 5662 5659 5659 5661 5664 5669 5667 5666 5661 5662 5675 5673 5672 5670 5667 5668 5667 5667 5665 5664 5661 5659 5657 5655 5651 5647 5643 5640 5635 5631 5626 5622 5618 5615 5613 5612 5610 5607 5605 5602 5599
5660 5664 5656 5657 5659 5660 5660 5665 5661 5657 5659 5668 5660 5671 5673 5670 5666 5664 5663 5662 5660 5657 5656 5653 5651 5647 5644 5639 5636 5634 5630 5627 5622 5619 5616 5614 5612 5611 5609 5605 5602 5599 5596 5593
5657 5654 5652 5654 5660 5658 5660 5655 5653 5652 5653 5657 5658 5660 5678 5668 5664 5663 5662 5658 5654 5651 5649 5644 5641 5637 5634 5630 5627 5625 5622 5618 5614 5612 5609 5607 5606 5604 5601 5598 5596 5594 5591 5587
5656 5654 5656 5657 5654 5652 5648 5647 5642 5643 5647 5651 5660 5658 5674 5671 5672 5667 5661 5654 5649 5644 5641 5637 5632 5629 5626 5622 5619 5616 5614 5610 5607 5604 5602 5599 5597 5595 5594 5592 5590 5587 5585 5581
5643 5648 5651 5651 5645 5641 5645 5647 5645 5646 5646 5656 5649 5650 5672 5679 5676 5672 5662 5653 5647 5640 5636 5631 5627 5623 5619 5615 5611 5609 5606 5603 5600 5597 5595 5592 5589 5587 5585 5583 5581 5579 5577 5574
5639 5645 5647 5648 5651 5647 5645 5648 5646 5645 5650 5654 5640 5649 5674 5667 5662 5662 5659 5651 5642 5635 5631 5625 5621 5616 5612 5607 5604 5602 5599 5595 5592 5589 5587 5584 5580 5578 5576 5573 5571 5569 5567 5564
5641 5641 5638 5641 5643 5647 5638 5641 5646 5643 5635 5639 5654 5658 5666 5656 5652 5648 5648 5643 5636 5630 5624 5618 5613 5609 5604 5600 5596 5593 5590 5587 5583 5580 5578 5575 5572 5569 5566 5563 5561 5559 5556 5553
5644 5637 5633 5630 5633 5630 5637 5640 5632 5634 5631 5634 5647 5651 5662 5657 5652 5646 5643 5639 5633 5625 5618 5611 5606 5601 5596 5592 5587 5584 5581 5578 5574 5571 5568 5564 5562 5559 5556 5553 5550 5547 5544 5541
5638 5635 5623 5624 5628 5633 5625 5625 5632 5634 5632 5632 5634 5653 5662 5660 5654 5647 5642 5637 5630 5620 5613 5605 5599 5593 5587 5583 5579 5576 5572 5568 5565 5561 5558 5555 5552 5548 5545 5542 5539 5535 5532 5528
5631 5633 5628 5626 5624 5626 5632 5634 5631 5628 5626 5624 5630 5646 5653 5650 5646 5641 5636 5629 5622 5613 5605 5598 5591 5584 5579 5575 5570 5566 5563 5559 5554 5550 5547 5544 5540 5537 5534 5531 5527 5522 5519 5515
5623 5624 5619 5617 5614 5613 5618 5621 5623 5625 5623 5621 5620 5640 5640 5636 5633 5630 5627 5620 5611 5603 5595 5588 5582 5576 5571 5566 5561 5557 5553 5548 5543 5539 5536 5533 5529 5526 5522 5518 5514 5509 5505 5501
5622 5624 5627 5627 5631 5625 5617 5614 5613 5615 5617 5620 5625 5638 5637 5629 5625 5621 5617 5611 5603 5594 5586 5580 5573 5568 5562 5556 5551 5547 5542 5537 5532 5528 5524 5521 5517 5513 5509 5505 5500 5496 5491 5487
5613 5617 5621 5622 5618 5617 5619 5617 5610 5612 5623 5622 5632 5634 5639 5633 5625 5618 5610 5601 5592 5583 5575 5569 5564 5558 5552 5546 5541 5536 5531 5526 5521 5517 5513 5509 5505 5500 5495 5491 5487 5482 5477 5472
5605 5607 5607 5606 5603 5603 5603 5612 5612 5610 5616 5620 5623 5628 5636 5626 5617 5609 5600 5591 5583 5576 5567 5560 5553 5547 5542 5537 5531 5525 5520 5515 5509 5505 5502 5497 5492 5487 5483 5478 5474 5469 5464 5459
5597 5598 5596 5602 5591 5589 5599 5616 5613 5611 5615 5616 5616 5626 5620 5607 5601 5598 5592 5582 5575 5567 5558 5550 5543 5537 5531 5525 5519 5514 5509 5503 5499 5495 5490 5485 5480 5475 5470 5466 5461 5456 5451 5446
5591 5592 5591 5589 5580 5580 5620 5618 5616 5614 5616 5615 5613 5611 5602 5599 5592 5586 5580 5573 5565 5555 5546 5539 5532 5525 5519 5513 5507 5502 5497 5492 5488 5484 5479 5474 5468 5462 5457 5453 5448 5443 5438 5432
5585 5585 5580 5576 5580 5595 5607 5604 5601 5599 5607 5611 5605 5599 5589 5578 5573 5569 5562 5558 5552 5544 5535 5528 5520 5513 5507 5501 5496 5490 5486 5482 5477 5473 5468 5462 5456 5450 5445 5440 5435 5429 5424 5418
5563 5573 5575 5567 5568 5579 5605 5598 5594 5592 5596 5603 5594 5586 5576 5569 5569 5565 5550 5541 5535 5527 5520 5513 5507 5500 5495 5490 5484 5479 5476 5472 5468 5462 5456 5450 5443 5437 5432 5427 5421 5415 5408 5403
5556 5558 5565 5567 5567 5587 5593 5581 5579 5579 5595 5586 5581 5575 5567 5564 5562 5550 5537 5527 5520 5513 5506 5499 5494 5489 5484 5478 5472 5468 5465 5461 5456 5450 5443 5437 5430 5424 5419 5412 5406 5400 5394 5388
5565 5561 5561 5563 5561 5574 5577 5569 5575 5583 5574 5570 5566 5561 5554 5546 5534 5528 5521 5512 5505 5498 5492 5487 5482 5477 5472 5467 5461 5458 5455 5450 5444 5438 5431 5426 5419 5412 5404 5398 5392 5385 5379 5374
5564 5572 5572 5571 5577 5574 5571 5571 5567 5563 5561 5556 5552 5545 5538 5528 5520 5512 5505 5499 5492 5486 5480 5475 5470 5466 5461 5456 5451 5447 5443 5437 5431 5425 5420 5414 5407 5399 5392 5385 5379 5372 5365 5359
5554 5552 5556 5557 5562 5558 5554 5553 5549 5548 5546 5542 5537 5530 5523 5516 5507 5499 5492 5486 5480 5474 5468 5463 5458 5455 5452 5447 5441 5435 5430 5424 5418 5413 5408 5401 5395 5388 5381 5372 5364 5357 5351 5345
5555 5545 5547 5551 5549 5542 5542 5541 5539 5532 5528 5523 5517 5512 5507 5500 5493 5486 5480 5474 5468 5462 5457 5451 5447 5444 5440 5435 5430 5424 5418 5411 5406 5401 5395 5389 5381 5375 5369 5362 5353 5345 5339 5330
5539 5540 5542 5549 5547 5542 5541 5533 5525 5519 5514 5508 5502 5494 5489 5485 5479 5473 5468 5462 5456 5451 5445 5440 5436 5432 5428 5424 5419 5412 5405 5398 5392 5387 5381 5374 5367 5361 5355 5350 5346 5339 5330 5326